• In Deutschland
  • Länderverzeichnis
  • Für 7 Tage
  • Wassertemperatur
  • Satellitenkarten
  • Wetterkarte
  • Widgets
  • user-avatar
    Anmelden

    Stündliche Wetter Murnau am Staffelsee

    Heute, 19 Oktober, Donnerstag

    Zeit Temperatur Niederschläge Wind Luftdruck Luftfeuchtigkeit
    00:00 +11°C° 0 mm 1 m/S 702 mmHg 72%
    01:00 +10°C° 0 mm 2 m/S 702 mmHg 68%
    02:00 +10°C° 0 mm 2 m/S 702 mmHg 66%
    03:00 +9°C° 0 mm 2 m/S 702 mmHg 64%
    04:00 +10°C° 0 mm 1 m/S 702 mmHg 62%
    05:00 +10°C° 0 mm 1 m/S 702 mmHg 61%
    06:00 +10°C° 0 mm 1 m/S 702 mmHg 59%
    07:00 +9°C° 0 mm 1 m/S 702 mmHg 57%
    08:00 +12°C° 0 mm 1 m/S 702 mmHg 52%
    09:00 +15°C° 0 mm 1 m/S 702 mmHg 47%
    10:00 +19°C° 0 mm 1 m/S 703 mmHg 43%
    11:00 +20°C° 0 mm 1 m/S 703 mmHg 41%
    12:00 +21°C° 0 mm 1 m/S 703 mmHg 40%
    13:00 +22°C° 0 mm 1 m/S 703 mmHg 39%
    14:00 +21°C° 0 mm 1 m/S 702 mmHg 46%
    15:00 +20°C° 0 mm 1 m/S 702 mmHg 53%
    16:00 +19°C° 0 mm 1 m/S 702 mmHg 60%
    17:00 +16°C° 0 mm 1 m/S 702 mmHg 63%
    18:00 +14°C° 0 mm 1 m/S 701 mmHg 65%
    19:00 +12°C° 0 mm 1 m/S 701 mmHg 68%
    20:00 +12°C° 0 mm 1 m/S 701 mmHg 65%
    21:00 +10°C° 0 mm 2 m/S 701 mmHg 62%
    22:00 +10°C° 0 mm 2 m/S 702 mmHg 60%
    23:00 +10°C° 0 mm 2 m/S 702 mmHg 58%

    Morgen, 20 Oktober, Freitag

    Zeit Temperatur Niederschläge Wind Luftdruck Luftfeuchtigkeit
    00:00 +10°C° 0 mm 2 m/S 702 mmHg 56%
    01:00 +9°C° 0 mm 2 m/S 702 mmHg 55%
    02:00 +9°C° 0 mm 2 m/S 702 mmHg 55%
    03:00 +9°C° 0 mm 2 m/S 701 mmHg 56%
    04:00 +9°C° 0 mm 2 m/S 701 mmHg 56%
    05:00 +9°C° 0 mm 2 m/S 702 mmHg 58%
    06:00 +9°C° 0 mm 2 m/S 702 mmHg 60%
    07:00 +9°C° 0 mm 2 m/S 702 mmHg 62%
    08:00 +12°C° 0 mm 2 m/S 703 mmHg 58%
    09:00 +15°C° 0 mm 1 m/S 703 mmHg 54%
    10:00 +19°C° 0 mm 1 m/S 703 mmHg 50%
    11:00 +19°C° 0 mm 1 m/S 704 mmHg 49%
    12:00 +20°C° 0 mm 1 m/S 704 mmHg 49%
    13:00 +20°C° 0 mm 2 m/S 704 mmHg 48%
    14:00 +20°C° 0 mm 1 m/S 704 mmHg 53%
    15:00 +20°C° 0 mm 1 m/S 704 mmHg 59%
    16:00 +19°C° 0 mm 1 m/S 704 mmHg 64%
    17:00 +16°C° 0 mm 1 m/S 704 mmHg 71%
    18:00 +14°C° 0 mm 1 m/S 704 mmHg 78%
    19:00 +12°C° 0 mm 1 m/S 704 mmHg 85%
    20:00 +12°C° 0 mm 1 m/S 704 mmHg 84%
    21:00 +11°C° 0 mm 1 m/S 704 mmHg 83%
    22:00 +11°C° 0 mm 1 m/S 704 mmHg 82%
    23:00 +11°C° 0 mm 1 m/S 704 mmHg 80%

    übermorgen, 21 Oktober, Samstag

    Zeit Temperatur Niederschläge Wind Luftdruck Luftfeuchtigkeit
    00:00 +11°C° 0 mm 1 m/S 704 mmHg 78%
    01:00 +11°C° 0 mm 1 m/S 704 mmHg 76%
    02:00 +11°C° 0 mm 1 m/S 704 mmHg 73%
    03:00 +10°C° 0 mm 2 m/S 704 mmHg 71%
    04:00 +10°C° 0 mm 2 m/S 704 mmHg 69%
    05:00 +10°C° 0 mm 2 m/S 704 mmHg 67%
    06:00 +12°C° 0 mm 2 m/S 704 mmHg 65%
    07:00 +12°C° 0 mm 2 m/S 704 mmHg 64%
    08:00 +14°C° 0 mm 1 m/S 704 mmHg 60%
    09:00 +16°C° 0 mm 1 m/S 704 mmHg 56%
    10:00 +19°C° 0 mm 1 m/S 705 mmHg 52%
    11:00 +20°C° 0 mm 1 m/S 704 mmHg 49%
    12:00 +21°C° 0 mm 1 m/S 704 mmHg 46%
    13:00 +22°C° 0 mm 1 m/S 704 mmHg 43%
    14:00 +21°C° 0 mm 1 m/S 703 mmHg 50%
    15:00 +20°C° 0 mm 1 m/S 703 mmHg 56%
    16:00 +19°C° 0 mm 1 m/S 703 mmHg 62%
    17:00 +16°C° 0 mm 1 m/S 703 mmHg 66%
    18:00 +15°C° 0 mm 1 m/S 703 mmHg 71%
    19:00 +13°C° 0 mm 1 m/S 703 mmHg 75%
    20:00 +13°C° 0 mm 1 m/S 703 mmHg 77%
    21:00 +12°C° 0 mm 1 m/S 703 mmHg 79%
    22:00 +12°C° 0 mm 2 m/S 703 mmHg 81%
    23:00 +12°C° 0,4 mm 2 m/S 704 mmHg 85%

    22 Oktober, Sonntag

    Zeit Temperatur Niederschläge Wind Luftdruck Luftfeuchtigkeit
    00:00 +10°C° 0,4 mm 2 m/S 704 mmHg 89%
    01:00 +10°C° 0,4 mm 2 m/S 704 mmHg 93%
    02:00 +9°C° 0,5 mm 2 m/S 704 mmHg 94%
    03:00 +9°C° 0,5 mm 2 m/S 703 mmHg 94%
    04:00 +9°C° 0,5 mm 2 m/S 703 mmHg 95%
    05:00 +9°C° 1,3 mm 2 m/S 703 mmHg 96%
    06:00 +8°C° 1,3 mm 2 m/S 703 mmHg 96%
    07:00 +8°C° 1,3 mm 2 m/S 703 mmHg 96%
    08:00 +8°C° 1,7 mm 2 m/S 703 mmHg 96%
    09:00 +8°C° 1,7 mm 2 m/S 703 mmHg 96%
    10:00 +8°C° 1,7 mm 2 m/S 703 mmHg 95%
    11:00 +8°C° 1 mm 2 m/S 702 mmHg 94%
    12:00 +8°C° 1 mm 2 m/S 702 mmHg 92%
    13:00 +8°C° 1 mm 2 m/S 702 mmHg 90%
    14:00 +8°C° 0,5 mm 2 m/S 702 mmHg 91%
    15:00 +7°C° 0,5 mm 2 m/S 702 mmHg 91%
    16:00 +7°C° 0,5 mm 2 m/S 702 mmHg 91%
    17:00 +7°C° 0,5 mm 2 m/S 702 mmHg 92%
    18:00 +6°C° 0,5 mm 2 m/S 702 mmHg 92%
    19:00 +5°C° 0,5 mm 2 m/S 703 mmHg 93%
    20:00 +5°C° 0,4 mm 2 m/S 703 mmHg 94%
    21:00 +5°C° 0,4 mm 2 m/S 703 mmHg 94%
    22:00 +5°C° 0,4 mm 2 m/S 703 mmHg 94%
    23:00 +5°C° 0,4 mm 2 m/S 703 mmHg 95%

    23 Oktober, Montag

    Zeit Temperatur Niederschläge Wind Luftdruck Luftfeuchtigkeit
    00:00 +5°C° 0,4 mm 2 m/S 703 mmHg 95%
    01:00 +5°C° 0,4 mm 2 m/S 703 mmHg 95%
    02:00 +4°C° 0,1 mm 2 m/S 703 mmHg 95%
    03:00 +4°C° 0,1 mm 2 m/S 703 mmHg 95%
    04:00 +4°C° 0,1 mm 2 m/S 703 mmHg 95%
    05:00 +4°C° 0,4 mm 2 m/S 703 mmHg 95%
    06:00 +4°C° 0,4 mm 2 m/S 703 mmHg 94%
    07:00 +4°C° 0,4 mm 2 m/S 703 mmHg 94%
    08:00 +4°C° 0,9 mm 2 m/S 703 mmHg 94%
    09:00 +5°C° 0,9 mm 2 m/S 703 mmHg 94%
    10:00 +4°C° 0,9 mm 3 m/S 703 mmHg 95%
    11:00 +5°C° 1 mm 3 m/S 703 mmHg 95%
    12:00 +5°C° 1 mm 3 m/S 703 mmHg 95%
    13:00 +7°C° 1 mm 3 m/S 703 mmHg 95%
    14:00 +7°C° 0,7 mm 3 m/S 704 mmHg 95%
    15:00 +7°C° 0,7 mm 2 m/S 704 mmHg 94%
    16:00 +7°C° 0,7 mm 2 m/S 705 mmHg 94%
    17:00 +7°C° 0,6 mm 2 m/S 705 mmHg 95%
    18:00 +6°C° 0,6 mm 2 m/S 706 mmHg 96%
    19:00 +6°C° 0,6 mm 2 m/S 706 mmHg 97%
    20:00 +6°C° 0,3 mm 2 m/S 706 mmHg 97%
    21:00 +6°C° 0,3 mm 2 m/S 707 mmHg 97%
    22:00 +5°C° 0,3 mm 2 m/S 707 mmHg 97%
    23:00 +5°C° 0,1 mm 2 m/S 707 mmHg 97%

    24 Oktober, Dienstag

    Zeit Temperatur Niederschläge Wind Luftdruck Luftfeuchtigkeit
    00:00 +5°C° 0,1 mm 2 m/S 707 mmHg 96%
    01:00 +5°C° 0,1 mm 2 m/S 707 mmHg 96%
    02:00 +5°C° 0,1 mm 2 m/S 707 mmHg 95%
    03:00 +5°C° 0,1 mm 2 m/S 707 mmHg 94%
    04:00 +5°C° 0,1 mm 2 m/S 707 mmHg 93%
    05:00 +5°C° 0,2 mm 2 m/S 707 mmHg 93%
    06:00 +6°C° 0,2 mm 2 m/S 707 mmHg 93%
    07:00 +6°C° 0,2 mm 2 m/S 707 mmHg 94%
    08:00 +7°C° 0,4 mm 2 m/S 707 mmHg 94%
    09:00 +7°C° 0,4 mm 2 m/S 707 mmHg 94%
    10:00 +8°C° 0,4 mm 2 m/S 707 mmHg 95%
    11:00 +8°C° 0,5 mm 2 m/S 707 mmHg 95%
    12:00 +9°C° 0,5 mm 2 m/S 707 mmHg 95%
    13:00 +9°C° 0,5 mm 2 m/S 707 mmHg 96%
    14:00 +9°C° 0,6 mm 2 m/S 707 mmHg 96%
    15:00 +9°C° 0,6 mm 2 m/S 707 mmHg 96%
    16:00 +10°C° 0,6 mm 2 m/S 708 mmHg 96%
    17:00 +9°C° 0,2 mm 2 m/S 708 mmHg 97%
    18:00 +9°C° 0,2 mm 2 m/S 708 mmHg 97%
    19:00 +9°C° 0,2 mm 2 m/S 708 mmHg 97%
    20:00 +9°C° 0,1 mm 2 m/S 709 mmHg 97%
    21:00 +9°C° 0,1 mm 2 m/S 709 mmHg 97%
    22:00 +9°C° 0,1 mm 2 m/S 709 mmHg 97%
    23:00 +8°C° 0,1 mm 2 m/S 709 mmHg 97%
    Mehr zeigen